This is the latest recevied weather packets stored in our database for station/object KO4LCK. If no packets are shown the sender has not sent any weather packets the latest 10 day(s).
| Time | Temp. | Humidity | Pressure | Rain* | Wind** | Luminosity | Snow |
|---|---|---|---|---|---|---|---|
| 1777484680 | 26.67° C | 70% | 1013.4 hPa | 0 mm | - | 902 W/m² | - |
| 1777484376 | 26.11° C | 71% | 1013.4 hPa | 0 mm | - | 882 W/m² | - |
| 1777484072 | 25.56° C | 72% | 1013.7 hPa | 0 mm | - | 953 W/m² | - |
| 1777483769 | 25° C | 71% | 1013.7 hPa | 0 mm | - | 376 W/m² | - |
| 1777483466 | 25° C | 72% | 1013.7 hPa | 0 mm | - | 198 W/m² | - |
| 1777483160 | 25.56° C | 71% | 1013.6 hPa | 0 mm | - | 201 W/m² | - |
| 1777482858 | 25.56° C | 70% | 1013.6 hPa | 0 mm | - | 263 W/m² | - |
| 1777482553 | 25.56° C | 70% | 1013.9 hPa | 0 mm | - | 377 W/m² | - |
| 1777482251 | 25.56° C | 70% | 1013.9 hPa | 0 mm | - | 384 W/m² | - |
| 1777481948 | 25.56° C | 72% | 1013.7 hPa | 0 mm | - | 221 W/m² | - |
| 1777481646 | 26.11° C | 68% | 1013.9 hPa | 0 mm | - | 258 W/m² | - |
| 1777481342 | 26.11° C | 68% | 1013.7 hPa | 0 mm | - | 391 W/m² | - |
| 1777481039 | 25.56° C | 69% | 1013.8 hPa | 0 mm | - | 807 W/m² | - |
| 1777480735 | 25.56° C | 69% | 1013.7 hPa | 0 mm | - | 270 W/m² | - |
| 1777480432 | 25.56° C | 69% | 1013.9 hPa | 0 mm | - | 773 W/m² | - |
| 1777480128 | 25.56° C | 70% | 1013.8 hPa | 0 mm | - | 813 W/m² | - |
| 1777479825 | 25.56° C | 70% | 1013.9 hPa | 0 mm | - | 772 W/m² | - |
| 1777479522 | 25.56° C | 70% | 1014 hPa | 0 mm | - | 706 W/m² | - |
| 1777479219 | 25.56° C | 71% | 1014.1 hPa | 0 mm | - | 232 W/m² | - |
| 1777478916 | 25.56° C | 69% | 1014.3 hPa | 0 mm | - | 630 W/m² | - |
| 1777478612 | 25.56° C | 72% | 1014.2 hPa | 0 mm | - | 679 W/m² | - |
| 1777478309 | 25° C | 71% | 1014.4 hPa | 0 mm | - | 637 W/m² | - |
| 1777478006 | 25° C | 72% | 1014.2 hPa | 0 mm | - | 645 W/m² | - |
| 1777477701 | 25° C | 70% | 1014.5 hPa | 0 mm | - | 588 W/m² | - |
| 1777477398 | 24.44° C | 72% | 1014.5 hPa | 0 mm | - | 652 W/m² | - |
* Rain latest hour (hover to see other rain measurements)
** Current wind speed in m/s (hover to see current wind gust speed)